Change the Weather History Date:

Tuesday, August 6, 2013

  Actual Average Record
Temperature  
Mean Temperature 74 °F 73 °F  
Max Temperature 86 °F 84 °F 98 °F (1968)
Min Temperature 62 °F 63 °F 49 °F (1990)
Degree Days  
Heating Degree Days 0 0  
Month to date heating degree days 0 0  
Since 1 June heating degree days 55 30  
Since 1 July heating degree days 15 3  
Cooling Degree Days 9 9  
Month to date cooling degree days 29 54  
Year to date cooling degree days 566 599  
Since 1 June cooling degree days 510 535  
Growing Degree Days 24 (Base 50)    
Moisture  
Dew Point 65 °F    
Average Humidity 78    
Maximum Humidity 100    
Minimum Humidity 55    
Precipitation  
Precipitation 0.02 in 0.10 in 2.52 in (1898)
Month to date precipitation 1.05 0.60  
Year to date precipitation 18.11 17.91  
Snow  
Snow 0.00 in 0.00 in 0.00 in ()
Month to date snowfall 0.0 0.0  
Since 1 June snowfall 0.0 0.0  
Since 1 July snowfall 0.0 0.0  
Snow Depth 0.00 in    
Sea Level Pressure  
Sea Level Pressure 29.85 in    
Wind  
Wind Speed 4 mph (West)    
Max Wind Speed 17 mph    
Max Gust Speed 22 mph    
Visibility 5 miles    
Events Fog , Rain , Thunderstorm    
T = Trace of Precipitation, MM = Missing Value Source: NWS Daily Summary

Daily Weather History Graph

Daily Weather History Graph

Search for Another Location

Airport or City:

Trip Planner

Search our weather history database for the weather conditions in past years. The results will help you decide how hot, cold, wet, or windy it might be!

Date:

Astronomy

Aug. 06, 2013 Rise Set
Actual Time 6:23 AM CDT 8:38 PM CDT
Civil Twilight 5:52 AM CDT 9:09 PM CDT
Nautical Twilight 5:13 AM CDT 9:48 PM CDT
Astronomical Twilight 4:30 AM CDT 10:30 PM CDT
Moon 6:16 AM CDT (8/6) 8:12 PM CDT (8/6)
Length of Visible Light 15h 17m
Length of Day
14h 15m
Waning Crescent, 0% of the Moon is Illuminated
Aug 6
Waning Crescent
Aug 6
New
Aug 14
First Quarter
Aug 20
Full
Aug 28
Last Quarter

Hourly Weather History & Observations

Time (CDT) Temp. Heat Index Dew Point Humidity Pressure Visibility Wind Dir Wind Speed Gust Speed Precip Events Conditions
12:41 AM 66.2 °F - 64.4 °F 94% 29.89 in 1.8 mi Calm Calm - N/A   Clear
12:52 AM 66.9 °F - 66.0 °F 97% 29.86 in 1.5 mi NNE 3.5 mph - N/A   Clear
12:55 AM 66.2 °F - 66.2 °F 100% 29.88 in 4.0 mi Calm Calm - N/A   Clear
1:16 AM 62.6 °F - 62.6 °F 100% 29.88 in 1.5 mi Calm Calm - N/A   Clear
1:25 AM 64.4 °F - 62.6 °F 94% 29.88 in 0.8 mi South 5.8 mph - N/A   Scattered Clouds
1:31 AM 64.4 °F - 64.4 °F 100% 29.89 in 2.0 mi South 3.5 mph - N/A   Mostly Cloudy
1:36 AM 64.4 °F - 64.4 °F 100% 29.88 in 1.5 mi SSE 4.6 mph - N/A   Mostly Cloudy
1:52 AM 66.0 °F - 66.0 °F 100% 29.87 in 1.0 mi South 3.5 mph - N/A   Mostly Cloudy
2:04 AM 66.2 °F - 64.4 °F 94% 29.89 in 0.8 mi Calm Calm - N/A   Mist
2:09 AM 66.2 °F - 66.2 °F 100% 29.89 in 1.0 mi Calm Calm - N/A   Mostly Cloudy
2:13 AM 66.2 °F - 66.2 °F 100% 29.89 in 3.0 mi Calm Calm - N/A   Mostly Cloudy
2:52 AM 64.9 °F - 64.0 °F 97% 29.85 in 7.0 mi Calm Calm - N/A   Scattered Clouds
3:21 AM 62.6 °F - 62.6 °F 100% 29.86 in 1.8 mi Calm Calm - N/A   Partly Cloudy
3:30 AM 62.6 °F - 62.6 °F 100% 29.86 in 0.5 mi Calm Calm - N/A Fog Fog
3:37 AM 62.6 °F - 62.6 °F 100% 29.86 in 0.8 mi Calm Calm - N/A   Mist
3:47 AM 62.6 °F - 62.6 °F 100% 29.86 in 1.2 mi Calm Calm - N/A   Partly Cloudy
3:50 AM 62.6 °F - 62.6 °F 100% 29.86 in 0.8 mi NNW 3.5 mph - N/A   Mist
3:52 AM 62.1 °F - 62.1 °F 100% 29.84 in 0.5 mi NNW 3.5 mph - N/A Fog Fog
4:00 AM 62.6 °F - 62.6 °F 100% 29.86 in 1.0 mi NNW 4.6 mph - N/A   Mist
4:02 AM 62.6 °F - 62.6 °F 100% 29.86 in 2.0 mi NNW 4.6 mph - N/A   Mostly Cloudy
4:11 AM 64.4 °F - 64.4 °F 100% 29.87 in 1.0 mi NW 3.5 mph - N/A   Mostly Cloudy
4:22 AM 64.4 °F - 64.4 °F 100% 29.87 in 0.8 mi WSW 4.6 mph - N/A   Overcast
4:35 AM 64.4 °F - 64.4 °F 100% 29.87 in 1.8 mi NNW 5.8 mph - N/A   Mostly Cloudy
4:39 AM 64.4 °F - 64.4 °F 100% 29.86 in 3.0 mi NNW 5.8 mph - N/A   Mostly Cloudy
4:52 AM 64.9 °F - 64.0 °F 97% 29.83 in 7.0 mi North 3.5 mph - N/A   Scattered Clouds
5:12 AM 62.6 °F - 62.6 °F 100% 29.84 in 1.8 mi Calm Calm - N/A   Clear
5:19 AM 62.6 °F - 62.6 °F 100% 29.83 in 0.5 mi Calm Calm - N/A Fog Fog
5:30 AM 62.6 °F - 62.6 °F 100% 29.84 in 0.2 mi Calm Calm - N/A Fog Fog
5:38 AM 62.6 °F - 62.6 °F 100% 29.84 in 0.5 mi Calm Calm - N/A Fog Fog
5:52 AM 63.0 °F - 63.0 °F 100% 29.82 in 0.5 mi Calm Calm - N/A Fog Fog
6:12 AM 64.4 °F - 62.6 °F 94% 29.87 in 2.0 mi WSW 5.8 mph - N/A   Mist
6:19 AM 64.4 °F - 62.6 °F 94% 29.88 in 4.0 mi WSW 3.5 mph - N/A   Scattered Clouds
6:52 AM 64.9 °F - 64.9 °F 100% 29.88 in 5.0 mi WSW 6.9 mph - N/A Thunderstorm Scattered Clouds
7:10 AM 66.2 °F - 64.4 °F 94% 29.90 in 6.0 mi Calm Calm - 0.00 in Rain Light Rain
7:52 AM 66.0 °F - 66.0 °F 100% 29.89 in 6.0 mi NNW 3.5 mph - 0.01 in Rain Light Rain
8:52 AM 68.0 °F - 66.0 °F 93% 29.88 in 8.0 mi West 3.5 mph - 0.01 in Rain Light Rain
9:52 AM 72.0 °F - 69.1 °F 91% 29.80 in 10.0 mi South 11.5 mph - 0.00 in   Clear
10:52 AM 78.1 °F - 69.1 °F 74% 29.77 in 10.0 mi South 10.4 mph - N/A   Clear
11:52 AM 81.0 °F 82.7 °F 64.9 °F 58% 29.78 in 10.0 mi SSW 11.5 mph 20.7 mph N/A   Clear
12:52 PM 81.0 °F 83.8 °F 68.0 °F 65% 29.80 in 10.0 mi SW 4.6 mph - N/A   Clear
1:52 PM 84.9 °F 88.2 °F 68.0 °F 57% 29.81 in 10.0 mi West 5.8 mph - N/A   Clear
2:52 PM 86.0 °F 89.4 °F 68.0 °F 55% 29.81 in 10.0 mi West 4.6 mph - N/A   Clear
3:52 PM 84.9 °F 87.6 °F 66.9 °F 55% 29.81 in 10.0 mi WSW 4.6 mph - N/A   Clear
4:52 PM 86.0 °F 90.1 °F 69.1 °F 57% 29.80 in 10.0 mi West 6.9 mph - N/A   Clear
5:52 PM 84.9 °F 88.8 °F 69.1 °F 59% 29.79 in 10.0 mi WSW 4.6 mph - N/A   Clear
6:52 PM 84.0 °F 89.0 °F 71.1 °F 65% 29.78 in 10.0 mi Calm Calm - N/A   Clear
7:52 PM 82.0 °F 86.3 °F 71.1 °F 69% 29.78 in 10.0 mi West 4.6 mph - N/A   Partly Cloudy
8:52 PM 75.9 °F - 71.1 °F 85% 29.80 in 10.0 mi NW 4.6 mph - N/A   Clear
9:52 PM 73.9 °F - 70.0 °F 87% 29.82 in 10.0 mi WNW 4.6 mph - N/A   Clear
10:52 PM 72.0 °F - 68.0 °F 87% 29.83 in 10.0 mi Calm Calm - N/A   Clear
11:52 PM 71.1 °F - 68.0 °F 90% 29.83 in 10.0 mi Calm Calm - N/A   Clear